Monett, MO

11:19 AM CST on November 21, 2019 (GMT -0600)
Monett

Weather History for KHFJ - October, 2019

Change the Weather History Date:

Monday, October 21, 2019

  Actual Average (WUND) Record (WUND)
Temperature  
Mean Temperature 53 °F -  
Max Temperature 62 °F - - (-1)
Min Temperature 44 °F - - (-1)
Degree Days  
Heating Degree Days 12    
Growing Degree Days 3 (Base 50)    
Moisture  
Dew Point 42 °F    
Average Humidity 67    
Maximum Humidity 100    
Minimum Humidity 39    
Precipitation  
Precipitation 0.85 in - - ()
Sea Level Pressure  
Sea Level Pressure 29.73 in    
Wind  
Wind Speed 11 mph ()    
Max Wind Speed 22 mph    
Max Gust Speed 37 mph    
Visibility 9.5 miles    
Events Rain , Thunderstorm    
Averages and records for this station are not official NWS values.
T = Trace of Precipitation, MM = Missing Value Source: Averaged Metar Reports

Daily Weather History Graph

Daily Weather History Graph

Search for Another Location

Airport or City:

Astronomy

Oct. 21, 2019 Rise Set
Actual Time 7:29 AM CDT 6:31 PM CDT
Civil Twilight 7:02 AM CDT 6:58 PM CDT
Nautical Twilight 6:32 AM CDT 7:28 PM CDT
Astronomical Twilight 6:02 AM CDT 7:58 PM CDT
Moon No Moon Rise 2:42 PM CDT
Length of Visible Light 11h 55m
Length of Day
11h 02m
Waning Gibbous, 48% of the Moon is Illuminated
Oct 21
Waning Gibbous
Oct 27
New
Nov 4
First Quarter
Nov 12
Full
Nov 19
Last Quarter

Hourly Weather History & Observations

Time (CDT) Temp. Windchill Dew Point Humidity Pressure Visibility Wind Dir Wind Speed Gust Speed Precip Events Conditions
12:15 AM 62.6 °F - 62.6 °F 100% 29.49 in 7.0 mi SE 10.4 mph - 0.06 in Rain , Thunderstorm Thunderstorms and Rain
12:30 AM 59.0 °F - 59.0 °F 100% 29.58 in 1.5 mi NW 15.0 mph 36.8 mph 0.42 in Rain , Thunderstorm Heavy Thunderstorms and Rain
12:55 AM 55.4 °F - 55.4 °F 100% 29.60 in 7.0 mi NW 11.5 mph 18.4 mph 0.72 in Rain , Thunderstorm Thunderstorms and Rain
1:15 AM 57.2 °F - 57.2 °F 100% 29.59 in 7.0 mi NW 5.8 mph - 0.05 in Rain , Thunderstorm Rain
1:35 AM 57.2 °F - 57.2 °F 100% 29.53 in 7.0 mi East 9.2 mph - 0.11 in Rain , Thunderstorm Rain
1:55 AM 57.2 °F - 57.2 °F 100% 29.55 in 10.0 mi SE 4.6 mph - 0.12 in Rain , Thunderstorm Light Thunderstorms and Rain
2:15 AM 55.4 °F - 55.4 °F 100% 29.51 in 10.0 mi ESE 9.2 mph - 0.01 in Rain Light Rain
2:35 AM 55.4 °F - 55.4 °F 100% 29.58 in 10.0 mi South 5.8 mph - 0.01 in Thunderstorm Mostly Cloudy
2:55 AM 55.4 °F - 55.4 °F 100% 29.60 in 10.0 mi South 6.9 mph - 0.01 in   Overcast
3:35 AM 55.4 °F - 55.4 °F 100% 29.61 in 5.0 mi South 10.4 mph - N/A   Light Drizzle
3:55 AM 55.4 °F - 55.4 °F 100% 29.60 in 5.0 mi SSW 6.9 mph - N/A   Overcast
4:15 AM 57.2 °F - 57.2 °F 100% 29.60 in 5.0 mi SW 6.9 mph - N/A   Drizzle
4:35 AM 57.2 °F - 57.2 °F 100% 29.60 in 10.0 mi SW 10.4 mph - N/A   Overcast
4:55 AM 57.2 °F - 57.2 °F 100% 29.60 in 10.0 mi WSW 9.2 mph - N/A   Overcast
5:15 AM 55.4 °F - 55.4 °F 100% 29.61 in 10.0 mi West 12.7 mph 21.9 mph N/A   Overcast
5:35 AM 53.6 °F - 53.6 °F 100% 29.62 in 10.0 mi West 9.2 mph 13.8 mph N/A   Mostly Cloudy
5:55 AM 51.8 °F - 51.8 °F 100% 29.63 in 10.0 mi West 10.4 mph - N/A   Clear
6:15 AM 51.8 °F - 50.0 °F 94% 29.64 in 10.0 mi West 13.8 mph 17.3 mph N/A   Clear
6:55 AM 48.2 °F - 44.6 °F 87% 29.66 in 10.0 mi WSW 10.4 mph - N/A   Clear
7:15 AM 48.2 °F - 42.8 °F 82% 29.67 in 10.0 mi WSW 8.1 mph - N/A   Clear
7:35 AM 46.4 °F 41.9 °F 41.0 °F 81% 29.68 in 10.0 mi WSW 9.2 mph - N/A   Clear
7:55 AM 46.4 °F 41.9 °F 41.0 °F 81% 29.68 in 10.0 mi WSW 9.2 mph - N/A   Clear
8:15 AM 44.6 °F 39.7 °F 41.0 °F 87% 29.68 in 10.0 mi WSW 9.2 mph - N/A   Clear
8:35 AM 46.4 °F 41.9 °F 41.0 °F 81% 29.69 in 10.0 mi WSW 9.2 mph - N/A   Clear
8:55 AM 46.4 °F 41.5 °F 41.0 °F 81% 29.71 in 10.0 mi West 10.4 mph 17.3 mph N/A   Clear
9:15 AM 50.0 °F - 39.2 °F 66% 29.73 in 10.0 mi WSW 10.4 mph - N/A   Clear
9:35 AM 50.0 °F - 39.2 °F 66% 29.73 in 10.0 mi WSW 10.4 mph - N/A   Clear
9:55 AM 51.8 °F - 41.0 °F 67% 29.74 in 10.0 mi WSW 17.3 mph 21.9 mph N/A   Clear
10:15 AM 51.8 °F - 39.2 °F 62% 29.74 in 10.0 mi West 16.1 mph 23.0 mph N/A   Clear
10:35 AM 51.8 °F - 39.2 °F 62% 29.75 in 10.0 mi West 20.7 mph 28.8 mph N/A   Clear
10:55 AM 51.8 °F - 37.4 °F 58% 29.75 in 10.0 mi WSW 18.4 mph 26.5 mph N/A   Clear
11:15 AM 53.6 °F - 39.2 °F 58% 29.76 in 10.0 mi West 13.8 mph 25.3 mph N/A   Clear
11:35 AM 53.6 °F - 37.4 °F 54% 29.76 in 10.0 mi WSW 17.3 mph 24.2 mph N/A   Clear
11:55 AM 53.6 °F - 39.2 °F 58% 29.76 in 10.0 mi WSW 15.0 mph 20.7 mph N/A   Clear
12:15 PM 53.6 °F - 37.4 °F 54% 29.76 in 10.0 mi West 18.4 mph - N/A   Clear
12:35 PM 55.4 °F - 37.4 °F 51% 29.76 in 10.0 mi WSW 11.5 mph 24.2 mph N/A   Clear
12:55 PM 55.4 °F - 39.2 °F 54% 29.75 in 10.0 mi WSW 15.0 mph 19.6 mph N/A   Clear
1:15 PM 57.2 °F - 39.2 °F 51% 29.75 in 10.0 mi WSW 16.1 mph 20.7 mph N/A   Clear
1:35 PM 59.0 °F - 41.0 °F 51% 29.75 in 10.0 mi SW 20.7 mph 24.2 mph N/A   Clear
1:55 PM 59.0 °F - 39.2 °F 48% 29.75 in 10.0 mi SW 19.6 mph 25.3 mph N/A   Clear
2:15 PM 59.0 °F - 39.2 °F 48% 29.75 in 10.0 mi WSW 21.9 mph 26.5 mph N/A   Clear
2:35 PM 59.0 °F - 37.4 °F 45% 29.74 in 10.0 mi WSW 21.9 mph 25.3 mph N/A   Clear
2:55 PM 60.8 °F - 37.4 °F 42% 29.75 in 10.0 mi WSW 20.7 mph 26.5 mph N/A   Clear
3:35 PM 60.8 °F - 37.4 °F 42% 29.76 in 10.0 mi SW 18.4 mph 32.2 mph N/A   Scattered Clouds
3:55 PM 60.8 °F - 37.4 °F 42% 29.77 in 10.0 mi SW 16.1 mph 25.3 mph N/A   Scattered Clouds
4:15 PM 60.8 °F - 37.4 °F 42% 29.77 in 10.0 mi SW 17.3 mph 23.0 mph N/A   Scattered Clouds
4:35 PM 60.8 °F - 37.4 °F 42% 29.77 in 10.0 mi WSW 15.0 mph 25.3 mph N/A   Scattered Clouds
4:55 PM 60.8 °F - 35.6 °F 39% 29.77 in 10.0 mi WSW 19.6 mph 26.5 mph N/A   Clear
5:15 PM 60.8 °F - 35.6 °F 39% 29.77 in 10.0 mi WSW 16.1 mph 23.0 mph N/A   Clear
5:35 PM 60.8 °F - 35.6 °F 39% 29.77 in 10.0 mi WSW 13.8 mph 19.6 mph N/A   Clear
5:55 PM 59.0 °F - 35.6 °F 42% 29.78 in 10.0 mi WSW 15.0 mph 19.6 mph N/A   Clear
6:15 PM 59.0 °F - 35.6 °F 42% 29.78 in 10.0 mi WSW 9.2 mph - N/A   Clear
6:35 PM 55.4 °F - 35.6 °F 47% 29.79 in 10.0 mi SW 9.2 mph - N/A   Clear
6:55 PM 55.4 °F - 35.6 °F 47% 29.79 in 10.0 mi WSW 9.2 mph - N/A   Clear
7:15 PM 53.6 °F - 33.8 °F 47% 29.80 in 10.0 mi SW 8.1 mph - N/A   Clear
7:35 PM 53.6 °F - 33.8 °F 47% 29.81 in 10.0 mi SW 9.2 mph - N/A   Clear
7:55 PM 53.6 °F - 32.0 °F 44% 29.82 in 10.0 mi SW 9.2 mph - N/A   Clear
8:15 PM 51.8 °F - 32.0 °F 47% 29.83 in 10.0 mi SW 9.2 mph - N/A   Clear
8:35 PM 53.6 °F - 32.0 °F 44% 29.85 in 10.0 mi WSW 9.2 mph - N/A   Clear
8:55 PM 51.8 °F - 32.0 °F 47% 29.87 in 10.0 mi WSW 10.4 mph - N/A   Clear
9:15 PM 51.8 °F - 32.0 °F 47% 29.88 in 10.0 mi West 10.4 mph - N/A   Scattered Clouds
9:35 PM 51.8 °F - 33.8 °F 50% 29.89 in 10.0 mi West 9.2 mph - N/A   Clear
9:55 PM 50.0 °F - 33.8 °F 54% 29.91 in 10.0 mi WSW 5.8 mph - N/A   Clear
10:15 PM 50.0 °F - 33.8 °F 54% 29.92 in 10.0 mi SW 5.8 mph - N/A   Clear
10:35 PM 48.2 °F - 33.8 °F 58% 29.93 in 10.0 mi WSW 8.1 mph - N/A   Clear
11:15 PM 46.4 °F 42.9 °F 35.6 °F 66% 29.94 in 10.0 mi WSW 6.9 mph - N/A   Clear
11:35 PM 46.4 °F 42.4 °F 35.6 °F 66% 29.94 in 10.0 mi WSW 8.1 mph - N/A   Clear
11:55 PM 50.0 °F - 33.8 °F 54% 29.95 in 10.0 mi West 11.5 mph 17.3 mph N/A   Clear